ATLAS 5 CENTAUR DEB, 44676

Orbit data source: Space-Track

ATLAS 5 CENTAUR DEB, 44676 is space debris in HEO originally from a launch on Wed, 17 Oct 2018 UTC launched from the Air Force Eastern Test Range (AFETR). Debris objects in space refer to the collection of defunct objects orbiting the Earth. Examples of debris include non-operational satellites, rocket bodies, and fragments generated from explosions, collisions, or faulty payload assembly.

Loading next visibility...
Identifier
44676, 2018-079AN
Orbit
HEO
Last TLE update
3 months ago
Origin
Flag of USUnited Launch Alliance/Lockheed Martin (US)
Manufacturer
ULA Decatur
Mission
Spacecraft
Bus & Motor
Unknown
Mass
Unknown
Launch date (UTC)
2018-10-17 (7 years ago)
Launch vehicle
Unknown
Launch site
Air Force Eastern Test Range (AFETR)
Object type
Payload
Rocket body
Debris
Shape & HBR
Unknown
Radar Cross Section
RCS unknown

Expand to show TLE details & history

TLE from 3 months ago
0 ATLAS 5 CENTAUR DEB
1 44676U 18079AN  25112.78985214 -.00000040  00000-0  00000+0 0  9991
2 44676  12.9959  62.1312 4836573 260.0852  44.1776  1.82796239 39196
Epoch: 2025-04-22T18:57Z
TLE epoch observation values (Epoch: 2025-04-22T18:57:23.224Z)
Latitude
-0.00002°
Longitude
-73.35296°
Altitude
17,223.116 km
Speed
4.435 km/s
True Right ascension
04h 08m 18s
True Declination
0° 00' 00"
Sunlit
Object was in daylight at epoch
Visualization orbit readout
Latitude
0.54563°
Longitude
-77.7856°
Altitude
15,084.223 km
Speed
4.8 km/s
Apparent Right ascension
04h 37m 52s
Apparent Declination
-9° 28' 37"
Sunlit
Object is in daylight
Visualization observer readout
Local Sidereal Time
20:53:17
Azimuth
80.219° E
Elevation
-26.042°
Doppler factor
1
Orbital elements
Apogee altitude
35,545.333 km
Perigee altitude
8,212.077 km
Semi-major axis
28,256.842 km
Eccentricity
0.48366
Inclination
12.9959°
RAAN
62.1312°
Arg. of periapsis
260.0852°
True anomaly
Unknown
Mean anomaly
44.1776°
Eccentric anomaly
Unknown
Mean motion
0.45694 °/min
Orbital period
787.85 mins
BSTAR
0
Loading maneuver chart data...
Loading SW <> Apogee altitude chart data...

ATLAS 5 CENTAUR DEB Visibility forecast

Observer location: undefined°, undefined°

Span
Click to sort rows by Start time (UTC) header in descending order
Start Az.
Max El. time (UTC)
Max El. Az.
Max El.
End time (UTC)
End Az.
81 mins2025-07-09 00:22:30.676Z268.054° W2025-07-09 01:00:30.676Z269.25° W10.585°2025-07-09 01:43:30.676Z270.902° WNW
|